• In Lithuania
  • List of Countries
  • For 7 days
  • Water Temperature
  • Satellite Maps
  • Weather Map
  • Weather Widgets
  • user-avatar
    Login

    Hourly Weather Borowki

    Today, 17 July, Tuesday

    Time Temperature Precipitation Wind Pressure Humidity
    00:00 +19°C° 0.6 mm 2 mps 752 mmHg 93%
    01:00 +19°C° 0.6 mm 2 mps 752 mmHg 95%
    02:00 +19°C° 1.3 mm 2 mps 752 mmHg 94%
    03:00 +19°C° 1.3 mm 2 mps 751 mmHg 94%
    04:00 +19°C° 1.3 mm 2 mps 751 mmHg 94%
    05:00 +19°C° 1.5 mm 3 mps 751 mmHg 94%
    06:00 +19°C° 1.5 mm 3 mps 751 mmHg 94%
    07:00 +19°C° 1.5 mm 3 mps 751 mmHg 94%
    08:00 +20°C° 0.9 mm 3 mps 751 mmHg 91%
    09:00 +21°C° 0.9 mm 3 mps 751 mmHg 88%
    10:00 +21°C° 0.9 mm 3 mps 751 mmHg 85%
    11:00 +22°C° 0.9 mm 3 mps 751 mmHg 84%
    12:00 +22°C° 0.9 mm 3 mps 751 mmHg 83%
    13:00 +22°C° 0.9 mm 3 mps 751 mmHg 81%
    14:00 +22°C° 0.8 mm 4 mps 751 mmHg 82%
    15:00 +22°C° 0.8 mm 4 mps 751 mmHg 83%
    16:00 +22°C° 0.8 mm 4 mps 751 mmHg 84%
    17:00 +21°C° 0.5 mm 4 mps 751 mmHg 86%
    18:00 +21°C° 0.5 mm 4 mps 751 mmHg 89%
    19:00 +20°C° 0.5 mm 4 mps 751 mmHg 91%
    20:00 +20°C° 0.5 mm 4 mps 751 mmHg 92%
    21:00 +20°C° 0.5 mm 4 mps 751 mmHg 94%
    22:00 +19°C° 0.5 mm 4 mps 751 mmHg 95%
    23:00 +19°C° 0.7 mm 4 mps 751 mmHg 95%

    Tomorrow, 18 July, Wednesday

    Time Temperature Precipitation Wind Pressure Humidity
    00:00 +19°C° 0.7 mm 4 mps 751 mmHg 96%
    01:00 +19°C° 0.7 mm 4 mps 751 mmHg 96%
    02:00 +19°C° 1 mm 4 mps 751 mmHg 96%
    03:00 +19°C° 1 mm 4 mps 751 mmHg 96%
    04:00 +19°C° 1 mm 4 mps 751 mmHg 96%
    05:00 +19°C° 1.1 mm 4 mps 751 mmHg 96%
    06:00 +19°C° 1.1 mm 4 mps 751 mmHg 95%
    07:00 +19°C° 1.1 mm 4 mps 751 mmHg 95%
    08:00 +19°C° 1.2 mm 4 mps 752 mmHg 95%
    09:00 +20°C° 1.2 mm 4 mps 752 mmHg 94%
    10:00 +20°C° 1.2 mm 4 mps 752 mmHg 94%
    11:00 +21°C° 0.5 mm 5 mps 752 mmHg 91%
    12:00 +21°C° 0.5 mm 5 mps 752 mmHg 89%
    13:00 +22°C° 0.5 mm 6 mps 752 mmHg 86%
    14:00 +22°C° 0.5 mm 6 mps 752 mmHg 85%
    15:00 +23°C° 0.5 mm 6 mps 753 mmHg 84%
    16:00 +23°C° 0.5 mm 6 mps 753 mmHg 83%
    17:00 +22°C° 0.2 mm 6 mps 753 mmHg 85%
    18:00 +21°C° 0.2 mm 5 mps 753 mmHg 87%
    19:00 +21°C° 0.2 mm 5 mps 753 mmHg 88%
    20:00 +20°C° 0 mm 4 mps 753 mmHg 90%
    21:00 +20°C° 0 mm 4 mps 753 mmHg 91%
    22:00 +20°C° 0 mm 4 mps 754 mmHg 93%
    23:00 +19°C° 0 mm 4 mps 754 mmHg 93%

    Day after tomorrow, 19 July, Thursday

    Time Temperature Precipitation Wind Pressure Humidity
    00:00 +19°C° 0 mm 4 mps 754 mmHg 93%
    01:00 +19°C° 0 mm 3 mps 754 mmHg 94%
    02:00 +19°C° 0 mm 3 mps 754 mmHg 93%
    03:00 +19°C° 0 mm 3 mps 754 mmHg 93%
    04:00 +19°C° 0 mm 3 mps 754 mmHg 93%
    05:00 +19°C° 0.1 mm 3 mps 754 mmHg 92%
    06:00 +20°C° 0.1 mm 4 mps 754 mmHg 90%
    07:00 +20°C° 0.1 mm 4 mps 754 mmHg 89%
    08:00 +20°C° 0.2 mm 4 mps 754 mmHg 88%
    09:00 +21°C° 0.2 mm 3 mps 754 mmHg 87%
    10:00 +21°C° 0.2 mm 3 mps 754 mmHg 86%
    11:00 +22°C° 0.1 mm 3 mps 754 mmHg 82%
    12:00 +23°C° 0.1 mm 4 mps 754 mmHg 77%
    13:00 +25°C° 0.1 mm 4 mps 754 mmHg 73%
    14:00 +25°C° 0.2 mm 4 mps 755 mmHg 70%
    15:00 +26°C° 0.2 mm 4 mps 755 mmHg 67%
    16:00 +27°C° 0.2 mm 4 mps 755 mmHg 64%
    17:00 +26°C° 0.1 mm 4 mps 755 mmHg 68%
    18:00 +25°C° 0.1 mm 4 mps 755 mmHg 72%
    19:00 +24°C° 0.1 mm 3 mps 755 mmHg 76%
    20:00 +21°C° 0 mm 3 mps 755 mmHg 80%
    21:00 +20°C° 0 mm 3 mps 755 mmHg 84%
    22:00 +19°C° 0 mm 3 mps 755 mmHg 88%
    23:00 +18°C° 0 mm 3 mps 755 mmHg 88%

    20 July, Friday

    Time Temperature Precipitation Wind Pressure Humidity
    00:00 +17°C° 0 mm 3 mps 755 mmHg 88%
    01:00 +17°C° 0 mm 3 mps 755 mmHg 88%
    02:00 +17°C° 0 mm 3 mps 755 mmHg 88%
    03:00 +16°C° 0 mm 3 mps 755 mmHg 87%
    04:00 +16°C° 0 mm 3 mps 755 mmHg 87%
    05:00 +17°C° 0 mm 3 mps 755 mmHg 83%
    06:00 +18°C° 0 mm 3 mps 755 mmHg 79%
    07:00 +20°C° 0 mm 4 mps 755 mmHg 75%
    08:00 +21°C° 0 mm 4 mps 755 mmHg 69%
    09:00 +23°C° 0 mm 4 mps 755 mmHg 64%
    10:00 +26°C° 0 mm 4 mps 755 mmHg 59%
    11:00 +26°C° 0 mm 4 mps 755 mmHg 57%
    12:00 +27°C° 0 mm 4 mps 755 mmHg 54%
    13:00 +28°C° 0 mm 5 mps 754 mmHg 52%
    14:00 +28°C° 0 mm 5 mps 754 mmHg 53%
    15:00 +27°C° 0 mm 4 mps 754 mmHg 53%
    16:00 +27°C° 0 mm 4 mps 754 mmHg 54%
    17:00 +26°C° 0 mm 4 mps 754 mmHg 60%
    18:00 +25°C° 0 mm 4 mps 754 mmHg 65%
    19:00 +22°C° 0 mm 3 mps 754 mmHg 71%
    20:00 +21°C° 0 mm 3 mps 754 mmHg 75%
    21:00 +19°C° 0 mm 3 mps 754 mmHg 79%
    22:00 +18°C° 0 mm 2 mps 754 mmHg 83%
    23:00 +17°C° 0 mm 2 mps 754 mmHg 83%

    21 July, Saturday

    Time Temperature Precipitation Wind Pressure Humidity
    00:00 +16°C° 0 mm 2 mps 754 mmHg 82%
    01:00 +16°C° 0 mm 2 mps 754 mmHg 82%
    02:00 +15°C° 0 mm 2 mps 754 mmHg 82%
    03:00 +15°C° 0 mm 2 mps 754 mmHg 81%
    04:00 +14°C° 0 mm 1 mps 754 mmHg 81%
    05:00 +16°C° 0 mm 2 mps 754 mmHg 77%
    06:00 +17°C° 0 mm 2 mps 754 mmHg 74%
    07:00 +19°C° 0 mm 2 mps 754 mmHg 70%
    08:00 +20°C° 0 mm 2 mps 754 mmHg 64%
    09:00 +23°C° 0 mm 2 mps 754 mmHg 57%
    10:00 +25°C° 0 mm 2 mps 754 mmHg 51%
    11:00 +25°C° 0 mm 2 mps 754 mmHg 48%
    12:00 +26°C° 0 mm 2 mps 754 mmHg 44%
    13:00 +27°C° 0 mm 2 mps 753 mmHg 41%
    14:00 +27°C° 0 mm 2 mps 753 mmHg 41%
    15:00 +27°C° 0 mm 2 mps 753 mmHg 42%
    16:00 +27°C° 0 mm 2 mps 753 mmHg 42%
    17:00 +26°C° 0 mm 2 mps 753 mmHg 48%
    18:00 +25°C° 0 mm 2 mps 753 mmHg 54%
    19:00 +23°C° 0 mm 2 mps 753 mmHg 61%
    20:00 +21°C° 0 mm 3 mps 753 mmHg 64%
    21:00 +20°C° 0 mm 3 mps 753 mmHg 67%
    22:00 +18°C° 0 mm 3 mps 753 mmHg 70%
    23:00 +18°C° 0 mm 2 mps 753 mmHg 72%

    22 July, Sunday

    Time Temperature Precipitation Wind Pressure Humidity
    00:00 +17°C° 0 mm 2 mps 753 mmHg 74%
    01:00 +16°C° 0 mm 2 mps 753 mmHg 76%
    02:00 +16°C° 0 mm 1 mps 753 mmHg 75%
    03:00 +16°C° 0 mm 1 mps 753 mmHg 73%
    04:00 +16°C° 0 mm 1 mps 753 mmHg 71%
    05:00 +18°C° 0 mm 1 mps 753 mmHg 69%
    06:00 +20°C° 0 mm 1 mps 753 mmHg 66%
    07:00 +21°C° 0 mm 1 mps 753 mmHg 64%
    08:00 +22°C° 0 mm 1 mps 753 mmHg 60%
    09:00 +23°C° 0 mm 2 mps 753 mmHg 56%
    10:00 +24°C° 0 mm 2 mps 754 mmHg 53%
    11:00 +24°C° 0.1 mm 2 mps 753 mmHg 52%
    12:00 +25°C° 0.1 mm 2 mps 753 mmHg 52%
    13:00 +25°C° 0.1 mm 2 mps 753 mmHg 52%
    14:00 +25°C° 0.4 mm 2 mps 753 mmHg 55%
    15:00 +25°C° 0.4 mm 3 mps 753 mmHg 59%
    16:00 +25°C° 0.4 mm 3 mps 753 mmHg 62%
    17:00 +24°C° 0.3 mm 3 mps 753 mmHg 67%
    18:00 +22°C° 0.3 mm 3 mps 753 mmHg 73%
    19:00 +21°C° 0.3 mm 2 mps 753 mmHg 78%
    20:00 +19°C° 0 mm 2 mps 753 mmHg 82%
    21:00 +18°C° 0 mm 2 mps 754 mmHg 86%
    22:00 +17°C° 0 mm 2 mps 754 mmHg 91%
    23:00 +17°C° 0 mm 2 mps 754 mmHg 92%
    Show more